[[{"header":{"parameterUnit":"m.s-1","parameterCategory":1,"la1":30.2991,"la2":30.254,"lo1":-89.0895,"lo2":-89.0444,"dy":0.0017,"dx":0.0017,"nx":28,"ny":28,"refTime":"2025-04-20T21:00:00:Z","depth":0,"parameterNumber":2,"parameterNumberName":"U-component_of_WINDS"},"data":[0,0,0,0,0,0,0,0,0,0,0,0,0,0,0,0,0,0,0,0,0,0,0,0,0,0,0,0,0,0,0,0,0,0,0,0,0,0,0,0,0,0,0,0,0,0,0,0,0,0,0,0,0,0,0,0,0,0,-1.6797,-1.6792,0,-1.6384,-1.6379,-1.6374,-1.6075,-1.6072,-1.607,-1.6067,-1.5649,-1.564,-1.5631,0,0,0,0,0,0,0,0,0,0,0,0,0,-1.7329,-1.7321,-1.6797,-1.6792,-1.6787,-1.6385,-1.6379,-1.6373,-1.6075,-1.6072,-1.6069,-1.6066,-1.5652,-1.5641,-1.5631,0,0,0,0,0,0,0,0,0,0,0,0,0,-1.7026,-1.7318,-1.6798,-1.6589,-1.6567,-1.6386,-1.6379,-1.6372,-1.6076,-1.6072,-1.6068,-1.6065,-1.5655,-1.5642,-1.5629,-1.5624,0,0,-1.5589,-1.5583,0,0,0,0,0,0,0,0,-1.7043,-1.7007,-1.6625,-1.6603,-1.6577,-1.6277,-1.6412,-1.6121,-1.6077,-1.6262,-1.6067,-1.6063,-1.5861,-1.5831,-1.5762,-1.5604,-1.5586,-1.5588,-1.558,-1.5574,-1.557,0,0,0,0,0,0,0,-1.7065,-1.7023,-1.6633,-1.662,-1.6591,-1.6517,-1.647,-1.6356,-1.6088,-1.6246,-1.6223,-1.6178,-1.5847,-1.5775,-1.575,-1.558,-1.5588,-1.5576,-1.5568,-1.5563,-1.5396,-1.5399,0,0,0,0,0,0,-1.7118,-1.7042,-1.6647,-1.6621,-1.6806,-1.6511,-1.6457,-1.6377,-1.6089,-1.6041,-1.6182,-1.6166,-1.5799,-1.5765,-1.5734,-1.5708,-1.5574,-1.5562,-1.5554,-1.5392,-1.5396,-1.54,0,0,0,0,0,0,-1.7131,-1.7086,-1.6663,-1.6825,-1.6766,-1.6505,-1.6418,-1.6371,-1.6298,-1.604,-1.5991,-1.6157,-1.5795,-1.5752,-1.5653,-1.5689,-1.5556,-1.5544,-1.5388,-1.5393,-1.5398,-1.5658,0,0,0,0,0,0,-1.7147,-1.7092,-1.7087,-1.6827,-1.6758,-1.659,-1.642,-1.6366,-1.6276,-1.6251,-1.6004,-1.5959,-1.5789,-1.5674,-1.564,-1.5669,-1.5534,-1.5384,-1.5391,-1.5397,-1.5646,-1.5672,-1.5694,0,0,0,0,0,-1.7167,-1.7178,-1.7089,-1.7043,-1.6747,-1.6593,-1.6553,-1.6356,-1.628,-1.6274,-1.6107,-1.5967,-1.569,-1.5666,-1.5625,-1.5651,-1.5381,-1.5389,-1.5396,-1.5635,-1.5667,-1.5694,0,0,0,0,0,0,-1.7452,-1.7141,-1.7038,-1.6965,-1.6807,-1.6542,-1.6528,-1.6396,-1.6258,-1.6241,-1.6002,-1.5948,-1.5874,-1.5751,-1.573,-1.563,-1.5518,-1.5518,-1.5713,-1.5742,-1.5766,-1.5798,-1.5523,0,0,0,0,0,-1.7506,-1.7406,-1.7139,-1.71,-1.7026,-1.6792,-1.6717,-1.6578,-1.6405,-1.6338,-1.6164,-1.6003,-1.5879,-1.5803,-1.5675,-1.5625,-1.5567,-1.5622,-1.5647,-1.5668,-1.5672,-1.5636,-1.5658,-1.5426,-1.5426,-1.5425,0,0,-1.7617,-1.7434,-1.7386,-1.7153,-1.7014,-1.6917,-1.6738,-1.6642,-1.6567,-1.6323,-1.6219,-1.6086,-1.589,-1.5816,-1.5774,-1.5711,-1.5722,-1.5678,-1.5697,-1.5689,-1.5646,-1.5669,-1.5688,-1.5431,-1.543,-1.5429,0,0,-1.777,-1.7622,-1.7573,-1.7437,-1.7228,-1.7071,-1.706,-1.6813,-1.6715,-1.6605,-1.642,-1.6327,-1.612,-1.5987,-1.5893,-1.5993,-1.586,-1.5958,-1.6087,-1.6055,-1.6073,-1.6088,-1.6125,-1.6141,-1.5962,-1.5962,-1.5963,0,-1.7936,-1.778,-1.7565,-1.7479,-1.7383,-1.7154,-1.7103,-1.6982,-1.6744,-1.6682,-1.6614,-1.6347,-1.6199,-1.609,-1.6114,-1.6045,-1.6025,-1.5987,-1.6088,-1.6101,-1.6112,-1.6144,-1.6158,-1.5976,-1.5974,-1.5973,-1.5971,0,-1.7994,-1.7889,-1.7875,-1.7648,-1.7548,-1.7482,-1.7257,-1.7182,-1.705,-1.6901,-1.6792,-1.6605,-1.6435,-1.6398,-1.627,-1.6271,-1.6238,-1.6133,-1.6016,-1.6151,-1.6177,-1.6188,-1.5995,-1.599,-1.5986,-1.5983,0,0,-1.8321,-1.7972,-1.7971,-1.7865,-1.7616,-1.7531,-1.7452,-1.7283,-1.7225,-1.7067,-1.6996,-1.6823,-1.6723,-1.6616,-1.647,-1.6441,-1.6533,-1.6338,-1.6329,-1.6383,-1.6523,-1.6607,-1.6625,-1.6441,-1.6443,-1.6444,-1.654,0,-1.8437,-1.8284,-1.8086,-1.7999,-1.7899,-1.7679,-1.761,-1.7451,-1.7308,-1.7203,-1.7044,-1.6926,-1.6802,-1.6736,-1.6698,-1.6531,-1.6559,-1.652,-1.6375,-1.6372,-1.6434,-1.6638,-1.6726,-1.6827,-1.6549,-1.6551,-1.6552,0,-1.8555,-1.8406,-1.831,-1.8067,-1.8018,-1.796,-1.7789,-1.769,-1.7504,-1.7401,-1.7282,-1.7123,-1.7029,-1.6923,-1.679,-1.6769,-1.6696,-1.6605,-1.6604,-1.6586,-1.6474,-1.6628,-1.6854,-1.6871,-1.6566,-1.6565,-1.6564,0,-1.8805,-1.8581,-1.8493,-1.8409,-1.8123,-1.8088,-1.7967,-1.7777,-1.7688,-1.7537,-1.7477,-1.7319,-1.7234,-1.7115,-1.6918,-1.6858,-1.6807,-1.6684,-1.6721,-1.6727,-1.6724,-1.6728,-1.6945,-1.6674,-1.6673,-1.6673,-1.6673,0,-1.8959,-1.8909,-1.8602,-1.8549,-1.8486,-1.8258,-1.8202,-1.8062,-1.7893,-1.781,-1.7608,-1.7534,-1.7276,-1.7172,-1.7017,-1.6931,-1.6893,-1.6809,-1.6769,-1.6829,-1.6841,-1.6782,-1.6771,-1.6677,-1.6676,-1.6675,-1.6675,0,-1.923,-1.9022,-1.8913,-1.8649,-1.8582,-1.8548,-1.8322,-1.8263,-1.8106,-1.8002,-1.7965,-1.772,-1.7586,-1.7376,-1.7181,-1.7076,-1.7019,-1.695,-1.7082,-1.7058,-1.7108,-1.7108,-1.7298,-1.7312,-1.7031,-1.7034,-1.7037,0,-1.9344,-1.93,-1.9031,-1.8959,-1.8845,-1.8733,-1.8639,-1.8412,-1.8323,-1.8106,-1.8073,-1.7922,-1.7791,-1.7587,-1.7392,-1.7241,-1.7169,-1.7246,-1.7146,-1.7207,-1.7173,-1.718,-1.7175,-1.7272,-1.7276,-1.7279,-1.7282,0,-1.9569,-1.9467,-1.9339,-1.9176,-1.907,-1.893,-1.8781,-1.8734,-1.8473,-1.8384,-1.8243,-1.8141,-1.7939,-1.7793,-1.7614,-1.749,-1.7345,-1.7314,-1.7315,-1.7378,-1.7457,-1.7417,-1.7149,-1.7312,-1.7309,-1.7307,-1.7305,-1.7304,-1.9766,-1.9716,-1.9519,-1.9383,-1.9245,-1.911,-1.904,-1.8873,-1.8752,-1.8569,-1.8441,-1.8309,-1.8121,-1.7865,-1.7748,-1.7642,-1.7578,-1.7579,-1.758,-1.7585,-1.7608,-1.7471,-1.7608,-1.7607,-1.7606,-1.7605,-1.7604,0,-1.9982,-1.9843,-1.972,-1.9516,-1.9409,-1.9276,-1.9103,-1.9024,-1.8909,-1.8745,-1.8618,-1.8456,-1.8312,-1.8104,-1.7945,-1.79,-1.7829,-1.7866,-1.7869,-1.7843,-1.7673,-1.7689,-1.7926,-1.7926,-1.7926,-1.7926,-1.7926,-1.7926,-2.0083,-1.9992,-1.9866,-1.9705,-1.9564,-1.9432,-1.9345,-1.9218,-1.9086,-1.8914,-1.8792,-1.8656,-1.8474,-1.8299,-1.8161,-1.8103,-1.8056,-1.8115,-1.8038,-1.7884,-1.7855,-1.7827,-1.7841,-1.8106,-1.8106,-1.8216,-1.8217,-1.8218]},{"header":{"parameterUnit":"m.s-1","parameterCategory":1,"la1":30.2991,"la2":30.254,"lo1":-89.0895,"lo2":-89.0444,"dy":0.0017,"dx":0.0017,"nx":28,"ny":28,"refTime":"2025-04-20T21:00:00:Z","depth":0,"parameterNumber":3,"parameterNumberName":"V-component_of_WINDS"},"data":[0,0,0,0,0,0,0,0,0,0,0,0,0,0,0,0,0,0,0,0,0,0,0,0,0,0,0,0,0,0,0,0,0,0,0,0,0,0,0,0,0,0,0,0,0,0,0,0,0,0,0,0,0,0,0,0,0,0,6.4975,6.4977,0,6.5201,6.5203,6.5206,6.5303,6.5303,6.5303,6.5302,6.5517,6.5523,6.5529,0,0,0,0,0,0,0,0,0,0,0,0,0,6.4613,6.4619,6.4974,6.4977,6.498,6.52,6.5203,6.5206,6.5303,6.5303,6.5302,6.5302,6.5515,6.5522,6.5529,0,0,0,0,0,0,0,0,0,0,0,0,0,6.4797,6.4621,6.4974,6.5055,6.5065,6.52,6.5204,6.5207,6.5303,6.5303,6.5302,6.5302,6.5513,6.5521,6.553,6.5596,0,0,6.5558,6.5562,0,0,0,0,0,0,0,0,6.4787,6.481,6.5041,6.505,6.5061,6.5224,6.5155,6.5337,6.5303,6.5212,6.5302,6.5302,6.5419,6.5435,6.5478,6.5606,6.5615,6.5559,6.5564,6.5568,6.5571,0,0,0,0,0,0,0,6.4774,6.4801,6.5063,6.5044,6.5056,6.5076,6.5102,6.519,6.5315,6.522,6.5228,6.5254,6.5424,6.5469,6.5484,6.5618,6.5558,6.5566,6.5572,6.5576,6.5813,6.5814,0,0,0,0,0,0,6.475,6.479,6.5056,6.507,6.4921,6.5083,6.5112,6.5172,6.5314,6.5336,6.5254,6.5258,6.5454,6.5473,6.5492,6.558,6.5568,6.5576,6.5582,6.5812,6.5814,6.5815,0,0,0,0,0,0,6.4742,6.4773,6.5047,6.4933,6.4969,6.509,6.5156,6.5176,6.5222,6.5341,6.5362,6.5279,6.5455,6.5479,6.5571,6.5589,6.5581,6.5589,6.5811,6.5813,6.5814,6.5755,0,0,0,0,0,0,6.4731,6.4769,6.4798,6.4933,6.4975,6.5126,6.5157,6.5181,6.5239,6.5246,6.5369,6.5388,6.5456,6.5557,6.558,6.5601,6.5596,6.581,6.5812,6.5814,6.5756,6.5754,6.5753,0,0,0,0,0,6.4718,6.4768,6.4799,6.4831,6.5014,6.5127,6.5151,6.5232,6.524,6.5269,6.5345,6.5385,6.5584,6.5566,6.5592,6.5616,6.5809,6.5812,6.5813,6.5756,6.5754,6.5753,0,0,0,0,0,0,6.4625,6.4787,6.4823,6.4919,6.501,6.5143,6.5181,6.5227,6.5312,6.5314,6.5407,6.5433,6.5517,6.5576,6.5553,6.5688,6.57,6.5707,6.5647,6.5646,6.5645,6.5628,6.5603,0,0,0,0,0,6.4617,6.47,6.4835,6.4906,6.4951,6.5058,6.511,6.5167,6.5261,6.5298,6.5381,6.5467,6.555,6.5601,6.5683,6.5765,6.5793,6.5795,6.5793,6.5792,6.5796,6.5846,6.5848,6.5821,6.5821,6.5821,0,0,6.4598,6.4697,6.4742,6.4891,6.4967,6.5047,6.5089,6.5171,6.5231,6.5308,6.5403,6.5466,6.5568,6.5657,6.57,6.5708,6.5811,6.5794,6.5792,6.5798,6.5848,6.5851,6.5853,6.5823,6.5822,6.5822,0,0,6.4606,6.469,6.4761,6.4839,6.4957,6.5029,6.5046,6.5175,6.5222,6.532,6.5381,6.545,6.559,6.5662,6.5716,6.5757,6.5796,6.578,6.5771,6.5818,6.582,6.5823,6.5838,6.5842,6.5785,6.5785,6.5785,0,6.4566,6.4695,6.4789,6.4871,6.4934,6.5016,6.5086,6.5155,6.5291,6.533,6.534,6.5521,6.5594,6.5702,6.5713,6.5754,6.5774,6.5766,6.5814,6.5817,6.582,6.5835,6.5841,6.5782,6.5782,6.5783,6.5783,0,6.4641,6.473,6.4772,6.491,6.4977,6.5052,6.5154,6.521,6.5262,6.5332,6.5429,6.5523,6.5627,6.5656,6.5703,6.5771,6.5773,6.5797,6.5809,6.5819,6.5835,6.5841,6.5778,6.5779,6.578,6.5781,0,0,6.4593,6.4788,6.4801,6.4866,6.5005,6.5072,6.515,6.5259,6.5306,6.5397,6.5464,6.5583,6.5608,6.567,6.5726,6.5768,6.5796,6.5787,6.5791,6.5785,6.5876,6.5857,6.5862,6.5824,6.5825,6.5827,6.5868,0,6.462,6.4771,6.486,6.4972,6.5055,6.5136,6.5204,6.5294,6.5363,6.5439,6.5512,6.5596,6.5622,6.5661,6.5706,6.5783,6.5815,6.5781,6.5883,6.5886,6.5855,6.5871,6.585,6.5884,6.5874,6.5875,6.5876,0,6.467,6.4769,6.4892,6.5026,6.5063,6.5124,6.5232,6.5305,6.5409,6.5456,6.5528,6.5587,6.567,6.5678,6.5793,6.5768,6.5815,6.5859,6.5863,6.5874,6.588,6.5881,6.5897,6.5901,6.5887,6.5886,6.5885,0,6.4624,6.4786,6.4882,6.4935,6.5092,6.5133,6.52,6.5304,6.5365,6.5458,6.5498,6.5596,6.5649,6.5723,6.5806,6.5804,6.5912,6.5927,6.5951,6.5949,6.5968,6.5965,6.599,6.5999,6.5999,6.5999,6.5999,0,6.4644,6.4715,6.4864,6.4922,6.5005,6.5105,6.5183,6.5255,6.5348,6.5419,6.5493,6.5557,6.5663,6.574,6.5804,6.589,6.5913,6.5951,6.5967,6.5944,6.5939,6.5975,6.5974,6.6001,6.6,6.6,6.6,0,6.4604,6.4707,6.4817,6.4961,6.4998,6.5052,6.5173,6.5231,6.5306,6.5395,6.5421,6.5536,6.5631,6.5722,6.5846,6.589,6.5975,6.5996,6.5941,6.595,6.5969,6.5966,6.6017,6.6028,6.603,6.603,6.603,0,6.461,6.4669,6.4821,6.4878,6.4945,6.5034,6.5099,6.52,6.5263,6.5389,6.5431,6.5533,6.5619,6.5766,6.5857,6.5953,6.5977,6.5988,6.5991,6.5967,6.5977,6.5972,6.5978,6.5985,6.5984,6.5984,6.5984,0,6.461,6.4659,6.4753,6.4865,6.4942,6.5033,6.5127,6.5167,6.5286,6.5352,6.5454,6.5522,6.5653,6.5752,6.586,6.5923,6.5972,6.5983,6.5994,6.597,6.5936,6.5955,6.5935,6.598,6.5981,6.5981,6.5981,6.5981,6.4593,6.465,6.4769,6.4871,6.4954,6.504,6.5104,6.519,6.5278,6.5397,6.545,6.5552,6.5656,6.5807,6.5871,6.5949,6.5961,6.5976,6.5979,6.5981,6.5977,6.5926,6.5969,6.5969,6.5969,6.5969,6.597,0,6.4597,6.4679,6.4772,6.4905,6.4985,6.5032,6.5139,6.5201,6.5292,6.5388,6.5475,6.5591,6.5689,6.5791,6.5893,6.5937,6.5962,6.596,6.5957,6.5971,6.596,6.5941,6.5938,6.5938,6.5938,6.5938,6.5938,6.5938,6.4608,6.4708,6.4772,6.4913,6.4993,6.5099,6.5156,6.5236,6.5314,6.5444,6.5528,6.5596,6.5694,6.5806,6.5897,6.5924,6.5957,6.5949,6.5982,6.597,6.5971,6.5973,6.5956,6.5956,6.5956,6.5987,6.5987,6.5987]}]]